"startDT [UTC]","vpos","CH4 [ppm]","stdev(CH4) [ppm]","CO2 [ppm]","stdev(CO2) [ppm]","H2O_reported [%]","stdev(H2O_reported)","CavityPressure [torr]","CavityTemp [C]","OutletValve","CH4_dry [ppm]","CO2_dry [ppm]","DasTemp [C]","EtalonTemp [C]","WarmBoxTemp [C]","MPVPosition","T_ECpre [C]","T_EC1 [C]","T_EC2 [C]","p_inlet [hPa]","p_in [hPa]","p_out [hPa]","T_inlet [C]","RH_inlet [%]","dwpt_inlet [C]","T_vent [C]","RH_vent [%]","dwpt_vent [C]","flow_vent [l min-1]","flow_inlet [l min-1]","dwpt_sample [C]","T_room [C]"
2015-01-22 00:00:00,3.0,1.88406,0.02997,399.193,2.341,0.0109,0.0178,140.106,45.000,31076.27044,1.88698,399.407,33.177,45.067,45.000,0.00,0.09,-272.70,-272.74,-3,509,-1,19.8,2.5,-28.6,19.9,4.0,-23.3,5.73,2.64,-18.0,25.0
2015-01-22 00:01:00,3.0,1.87625,0.00041,397.366,0.044,0.0027,0.0021,140.002,45.000,31209.27000,1.87628,397.381,33.132,45.068,45.000,0.00,0.09,-272.69,-272.76,-8,509,-1,19.8,2.5,-28.5,19.9,4.0,-23.2,5.73,1.87,-18.0,25.0
2015-01-22 00:02:00,3.0,1.87630,0.00027,397.398,0.065,0.0036,0.0019,140.003,45.000,31247.77923,1.87638,397.412,33.126,45.068,45.000,0.00,0.09,-272.70,-272.75,-4,509,-1,19.8,2.5,-28.4,19.9,4.0,-23.3,5.73,2.82,-18.0,25.0
2015-01-22 00:03:00,3.0,1.87596,0.00045,397.574,0.048,0.0033,0.0018,140.002,45.000,31282.99248,1.87601,397.587,33.125,45.068,45.000,0.00,0.09,-272.69,-272.74,-8,509,-1,19.8,2.5,-28.4,20.0,4.0,-23.3,5.73,1.92,-18.0,25.1
2015-01-22 00:04:00,3.0,1.87614,0.00044,397.622,0.032,0.0025,0.0017,140.002,45.000,31310.53652,1.87619,397.636,33.130,45.068,45.000,0.00,0.09,-272.69,-272.76,-4,509,-1,19.9,2.5,-28.4,20.0,4.0,-23.3,5.73,2.54,-18.0,25.0
2015-01-22 00:05:00,3.0,1.87615,0.00039,397.629,0.031,0.0025,0.0016,139.999,45.000,31332.60063,1.87618,397.638,33.125,45.068,45.000,0.00,0.09,-272.70,-272.75,-7,509,-1,19.9,2.5,-28.3,20.0,4.0,-23.3,5.73,2.35,-18.0,25.1
2015-01-22 00:06:00,3.0,1.87612,0.00033,397.643,0.031,0.0019,0.0022,139.999,45.000,31352.37721,1.87617,397.656,33.125,45.068,45.000,0.00,0.09,-272.68,-272.75,-5,509,-1,19.9,2.5,-28.3,20.0,4.0,-23.3,5.73,2.06,-18.0,25.1
2015-01-22 00:07:00,3.0,1.87602,0.00031,397.625,0.027,0.0007,0.0022,140.001,45.000,31374.17517,1.87605,397.627,33.093,45.068,45.000,0.00,0.09,-272.70,-272.75,-6,510,-1,19.9,2.5,-28.3,20.0,4.0,-23.4,5.73,2.77,-18.0,25.2
2015-01-22 00:08:00,3.0,1.87596,0.00039,397.652,0.024,0.0008,0.0015,140.000,45.000,31389.13278,1.87597,397.656,33.070,45.068,45.000,0.00,0.09,-272.68,-272.75,-5,510,-1,19.9,2.6,-28.3,20.0,4.0,-23.4,5.73,1.82,-18.0,25.2
2015-01-22 00:09:00,3.0,1.87609,0.00027,397.651,0.031,0.0009,0.0019,140.000,45.000,31403.08718,1.87610,397.655,33.066,45.068,45.001,0.00,0.09,-272.69,-272.75,-6,510,-1,20.0,2.5,-28.3,20.0,4.0,-23.3,5.73,2.75,-18.0,25.2
2015-01-22 00:10:00,3.0,1.87594,0.00039,397.659,0.026,0.0009,0.0017,140.000,45.000,31414.74127,1.87596,397.664,33.075,45.068,45.000,0.00,0.09,-272.70,-272.74,-6,511,-1,20.0,2.5,-28.4,20.0,4.0,-23.3,5.73,2.11,-18.0,25.2
2015-01-22 00:11:00,3.0,1.87601,0.00041,397.664,0.029,0.0000,0.0013,140.000,45.000,31424.58108,1.87602,397.664,33.111,45.068,45.000,0.00,0.09,-272.69,-272.76,-5,511,-1,20.1,2.5,-28.4,20.1,4.0,-23.3,5.73,2.26,-18.0,25.2
2015-01-22 00:12:00,3.0,1.87617,0.00035,397.667,0.023,-0.0007,0.0020,140.001,45.000,31433.48764,1.87615,397.663,33.127,45.068,45.000,0.00,0.09,-272.71,-272.74,-7,511,-1,20.1,2.5,-28.4,20.1,4.0,-23.4,5.73,2.65,-18.0,25.2
2015-01-22 00:13:00,3.0,1.87622,0.00036,397.645,0.034,0.0006,0.0014,140.000,45.000,31440.67868,1.87622,397.650,33.136,45.067,45.000,0.00,0.09,-272.68,-272.75,-4,512,-1,20.1,2.5,-28.5,20.1,4.0,-23.4,5.73,1.84,-18.0,25.3
2015-01-22 00:14:00,3.0,1.87617,0.00028,397.666,0.035,-0.0001,0.0017,140.001,45.000,31449.17841,1.87617,397.664,33.132,45.067,45.000,0.00,0.09,-272.70,-272.76,-8,512,-1,20.1,2.5,-28.5,20.1,4.0,-23.4,5.73,2.81,-18.0,25.3
2015-01-22 00:15:00,3.0,1.87593,0.00034,397.688,0.030,0.0000,0.0022,139.999,45.000,31456.45921,1.87594,397.687,33.123,45.067,45.000,0.00,0.09,-272.69,-272.75,-4,512,-1,20.2,2.4,-28.6,20.2,4.0,-23.3,5.73,1.98,-18.0,25.2
2015-01-22 00:16:00,3.0,1.87623,0.00036,397.675,0.019,-0.0002,0.0013,139.998,45.000,31461.19099,1.87621,397.675,33.114,45.067,45.000,0.00,0.09,-272.69,-272.75,-8,512,-1,20.2,2.4,-28.6,20.2,4.0,-23.3,5.73,2.39,-18.0,25.3
2015-01-22 00:17:00,3.0,1.87611,0.00022,397.683,0.028,-0.0001,0.0020,140.000,45.000,31467.80634,1.87613,397.682,33.120,45.068,45.000,0.00,0.09,-272.71,-272.74,-4,512,-1,20.2,2.4,-28.6,20.2,3.9,-23.4,5.73,2.56,-18.0,25.3
2015-01-22 00:18:00,3.0,1.87603,0.00035,397.654,0.031,-0.0010,0.0017,140.001,45.000,31472.49431,1.87602,397.650,33.125,45.068,45.000,0.00,0.09,-272.68,-272.76,-8,513,-1,20.2,2.4,-28.6,20.2,3.9,-23.4,5.73,1.87,-18.0,25.3
2015-01-22 00:19:00,3.0,1.87610,0.00027,397.663,0.032,-0.0000,0.0016,139.999,45.000,31473.66247,1.87607,397.662,33.126,45.067,45.000,0.00,0.09,-272.70,-272.74,-4,513,-1,20.3,2.4,-28.6,20.2,3.9,-23.4,5.73,2.82,-18.0,25.2
2015-01-22 00:20:00,0.0,1.93664,0.03036,404.221,3.204,0.0519,0.0259,139.894,45.000,29155.49510,1.93514,404.328,33.125,45.068,45.000,0.00,0.09,-272.69,-272.75,-9,163,-1,20.3,2.4,-28.7,20.2,3.9,-23.3,5.73,2.20,-18.0,25.1
2015-01-22 00:21:00,0.0,1.94937,0.00049,405.790,0.036,0.0689,0.0012,139.996,45.000,28979.46941,1.95069,406.127,33.125,45.068,45.000,0.00,0.09,-272.69,-272.75,-8,162,-1,20.3,2.4,-28.7,20.2,3.9,-23.3,5.73,2.26,-18.0,25.1
2015-01-22 00:22:00,0.0,1.94897,0.00063,405.752,0.025,0.0697,0.0016,139.997,45.000,28940.18938,1.95033,406.092,33.125,45.068,45.000,0.00,0.09,-272.69,-272.74,-8,162,-1,20.3,2.4,-28.6,20.2,3.9,-23.4,5.73,2.40,-17.9,25.2
2015-01-22 00:23:00,0.0,1.94838,0.00063,405.739,0.040,0.0704,0.0020,139.996,45.000,28913.72880,1.94974,406.085,33.124,45.067,45.000,0.00,0.09,-272.69,-272.75,-8,163,-1,20.3,2.4,-28.6,20.3,3.9,-23.4,5.73,2.50,-18.0,25.2
2015-01-22 00:24:00,0.0,1.94790,0.00058,405.722,0.034,0.0722,0.0011,139.999,45.000,28888.85330,1.94926,406.071,33.120,45.067,45.000,0.00,0.09,-272.69,-272.76,-8,163,-1,20.3,2.4,-28.5,20.3,3.9,-23.3,5.73,2.42,-17.9,25.2
2015-01-22 00:25:00,0.0,1.94908,0.00050,405.731,0.035,0.0710,0.0016,139.995,45.000,28865.36811,1.95042,406.077,33.104,45.068,45.000,0.00,0.09,-272.68,-272.75,-8,162,-1,20.4,2.4,-28.5,20.3,3.9,-23.3,5.73,2.27,-18.0,25.2
2015-01-22 00:26:00,0.0,1.94851,0.00064,405.714,0.040,0.0702,0.0018,139.997,45.000,28852.84283,1.94992,406.059,33.097,45.068,45.000,0.00,0.09,-272.69,-272.74,-8,162,-1,20.4,2.4,-28.6,20.3,3.9,-23.3,5.73,2.23,-17.9,25.1
2015-01-22 00:27:00,0.0,1.94832,0.00034,405.690,0.028,0.0704,0.0013,139.999,45.000,28841.10906,1.94967,406.032,33.124,45.068,45.000,0.00,0.09,-272.70,-272.75,-8,163,-1,20.4,2.4,-28.6,20.3,3.9,-23.3,5.73,2.34,-17.9,25.2
2015-01-22 00:28:00,0.0,1.94898,0.00052,405.723,0.027,0.0697,0.0015,139.995,45.000,28828.33649,1.95030,406.064,33.114,45.067,45.000,0.00,0.09,-272.70,-272.75,-9,163,-1,20.4,2.4,-28.7,20.3,3.9,-23.3,5.73,2.47,-18.0,25.1
2015-01-22 00:29:00,0.0,1.94866,0.00050,405.728,0.035,0.0691,0.0023,139.995,45.000,28810.48832,1.95000,406.063,33.097,45.068,45.000,0.00,0.09,-272.69,-272.74,-9,163,-1,20.4,2.4,-28.8,20.3,3.9,-23.3,5.73,2.47,-17.9,25.1
2015-01-22 00:30:00,0.0,1.94941,0.00083,405.950,0.146,0.0698,0.0016,139.999,45.000,28801.66600,1.95064,406.283,33.082,45.068,45.000,0.00,0.09,-272.69,-272.75,-8,163,-1,20.4,2.4,-28.7,20.3,3.9,-23.3,5.73,2.35,-18.0,25.1
2015-01-22 00:31:00,0.0,1.95160,0.00045,406.253,0.058,0.0687,0.0016,139.999,45.000,28791.99198,1.95290,406.587,33.062,45.068,45.000,0.00,0.09,-272.69,-272.75,-8,162,-1,20.4,2.3,-28.9,20.3,3.9,-23.3,5.73,2.24,-18.0,25.1
2015-01-22 00:32:00,0.0,1.95252,0.00053,406.357,0.055,0.0675,0.0015,140.000,45.000,28784.71322,1.95378,406.685,33.050,45.068,45.000,0.00,0.09,-272.69,-272.74,-8,162,-1,20.4,2.3,-29.0,20.3,3.9,-23.3,5.73,2.26,-18.0,25.2
2015-01-22 00:33:00,0.0,1.95211,0.00084,406.347,0.120,0.0676,0.0015,139.997,45.000,28781.65750,1.95347,406.681,33.062,45.068,45.000,0.00,0.09,-272.69,-272.74,-8,163,-1,20.4,2.3,-29.0,20.3,3.9,-23.3,5.73,2.39,-18.0,25.2
2015-01-22 00:34:00,0.0,1.95182,0.00064,406.282,0.116,0.0688,0.0020,139.998,45.000,28775.81300,1.95308,406.616,33.063,45.068,45.000,0.00,0.09,-272.70,-272.75,-8,162,-1,20.4,2.4,-28.9,20.3,3.9,-23.3,5.73,2.49,-18.0,25.3
2015-01-22 00:35:00,0.0,1.95214,0.00056,406.302,0.073,0.0688,0.0016,139.998,45.000,28769.27690,1.95346,406.638,33.059,45.068,45.000,0.00,0.09,-272.69,-272.75,-8,162,-1,20.4,2.4,-28.8,20.3,3.9,-23.3,5.73,2.44,-17.9,25.3
2015-01-22 00:36:00,0.0,1.95298,0.00050,406.387,0.036,0.0685,0.0015,140.001,45.000,28764.85012,1.95429,406.724,33.047,45.068,45.000,0.00,0.09,-272.68,-272.74,-9,161,-1,20.4,2.4,-28.8,20.3,3.9,-23.3,5.73,2.29,-18.0,25.2
2015-01-22 00:37:00,0.0,1.95360,0.00051,406.385,0.042,0.0692,0.0017,139.999,45.000,28761.45067,1.95493,406.722,33.043,45.068,45.000,0.00,0.09,-272.69,-272.75,-9,162,-1,20.4,2.3,-28.9,20.3,3.9,-23.3,5.73,2.23,-18.0,25.3
2015-01-22 00:38:00,0.0,1.95357,0.00037,406.446,0.043,0.0694,0.0012,139.999,45.000,28758.36220,1.95491,406.785,33.059,45.068,45.000,0.00,0.09,-272.70,-272.75,-9,162,-1,20.4,2.3,-28.9,20.3,3.9,-23.3,5.73,2.32,-17.9,25.2
2015-01-22 00:39:00,0.0,1.95301,0.00047,406.446,0.042,0.0704,0.0014,140.000,45.000,28750.83083,1.95438,406.791,33.045,45.068,45.000,0.00,0.09,-272.69,-272.74,-8,161,-1,20.4,2.4,-28.8,20.3,3.9,-23.3,5.73,2.46,-17.9,25.3
2015-01-22 00:40:00,0.0,1.95389,0.00062,406.444,0.036,0.0710,0.0018,139.998,45.000,28749.54000,1.95522,406.791,33.056,45.068,45.000,0.00,0.09,-272.69,-272.74,-8,161,-1,20.3,2.4,-28.7,20.3,3.9,-23.3,5.73,2.49,-17.9,25.3
2015-01-22 00:41:00,0.0,1.95162,0.00069,406.466,0.032,0.0715,0.0021,139.999,45.000,28753.30368,1.95311,406.816,33.058,45.068,45.000,0.00,0.09,-272.69,-272.76,-8,161,-1,20.4,2.4,-28.6,20.3,3.9,-23.3,5.73,2.37,-17.9,25.3
2015-01-22 00:42:00,0.0,1.95019,0.00022,406.393,0.041,0.0716,0.0013,139.996,45.000,28752.50037,1.95157,406.742,33.058,45.068,45.000,0.00,0.09,-272.69,-272.75,-8,161,-1,20.3,2.4,-28.5,20.3,3.9,-23.3,5.73,2.24,-17.9,25.2
2015-01-22 00:43:00,0.0,1.94966,0.00043,406.337,0.054,0.0722,0.0017,139.998,45.000,28754.88249,1.95106,406.690,33.050,45.068,45.000,0.00,0.09,-272.69,-272.75,-8,162,-1,20.4,2.5,-28.4,20.3,3.9,-23.3,5.73,2.26,-17.9,25.1
2015-01-22 00:44:00,0.0,1.94949,0.00049,406.341,0.044,0.0718,0.0021,139.998,45.000,28754.57050,1.95087,406.693,33.005,45.068,45.000,0.00,0.09,-272.70,-272.75,-9,162,-1,20.4,2.5,-28.4,20.3,3.9,-23.3,5.73,2.37,-17.9,25.2
2015-01-22 00:45:00,0.0,1.94988,0.00062,406.399,0.079,0.0718,0.0014,139.999,45.000,28755.36065,1.95124,406.748,33.006,45.068,45.000,0.00,0.09,-272.69,-272.75,-9,162,-1,20.4,2.5,-28.4,20.3,3.9,-23.3,5.73,2.47,-17.9,25.1
2015-01-22 00:46:00,0.0,1.95269,0.00083,406.481,0.024,0.0716,0.0018,140.000,45.000,28759.32991,1.95399,406.832,33.046,45.068,45.000,0.00,0.09,-272.69,-272.75,-9,163,-1,20.3,2.4,-28.4,20.3,3.9,-23.3,5.73,2.46,-17.9,25.1
2015-01-22 00:47:00,0.0,1.95011,0.00060,406.453,0.038,0.0725,0.0015,139.997,45.000,28755.02486,1.95159,406.807,33.063,45.068,45.000,0.00,0.09,-272.69,-272.75,-8,163,-1,20.3,2.4,-28.5,20.3,3.9,-23.3,5.73,2.34,-17.9,25.1
2015-01-22 00:48:00,0.0,1.95054,0.00059,406.455,0.058,0.0718,0.0017,140.002,45.000,28754.31792,1.95189,406.806,33.066,45.067,45.000,0.00,0.09,-272.69,-272.75,-8,163,-1,20.3,2.5,-28.4,20.3,3.9,-23.3,5.73,2.23,-17.9,25.2
2015-01-22 00:49:00,0.0,1.95031,0.00056,406.480,0.024,0.0723,0.0016,139.999,45.000,28750.01256,1.95173,406.834,33.079,45.067,45.000,0.00,0.09,-272.69,-272.74,-8,162,-1,20.3,2.4,-28.5,20.3,3.9,-23.3,5.73,2.26,-18.0,25.1
2015-01-22 00:50:00,0.0,1.94963,0.00047,406.448,0.037,0.0722,0.0019,139.998,45.000,28743.61399,1.95104,406.802,33.099,45.067,45.000,0.00,0.09,-272.69,-272.75,-8,161,-1,20.3,2.5,-28.4,20.3,3.9,-23.3,5.73,2.38,-17.9,25.2
2015-01-22 00:51:00,0.0,1.94975,0.00043,406.448,0.031,0.0721,0.0020,140.000,45.000,28744.96194,1.95108,406.800,33.067,45.067,44.999,0.00,0.09,-272.69,-272.75,-8,161,-1,20.3,2.5,-28.4,20.3,3.9,-23.3,5.73,2.48,-18.0,25.2
2015-01-22 00:52:00,0.0,1.94966,0.00034,406.417,0.032,0.0723,0.0021,140.002,45.000,28748.55558,1.95110,406.770,33.071,45.067,45.000,0.00,0.09,-272.69,-272.75,-8,162,-1,20.3,2.5,-28.4,20.3,3.9,-23.3,5.73,2.45,-17.9,25.2
2015-01-22 00:53:00,0.0,1.94893,0.00051,406.430,0.052,0.0726,0.0015,140.002,45.000,28741.71951,1.95036,406.784,33.074,45.067,45.000,0.00,0.09,-272.69,-272.75,-9,161,-1,20.3,2.5,-28.4,20.3,4.0,-23.3,5.73,2.31,-17.9,25.3
2015-01-22 00:54:00,0.0,1.94908,0.00047,406.429,0.028,0.0731,0.0016,140.001,45.000,28740.23864,1.95046,406.787,33.072,45.068,45.000,0.00,0.09,-272.69,-272.75,-9,161,-1,20.3,2.5,-28.3,20.3,4.0,-23.3,5.73,2.22,-17.9,25.2
2015-01-22 00:55:00,0.0,1.94880,0.00034,406.382,0.025,0.0728,0.0017,139.998,45.000,28740.07637,1.95019,406.739,33.063,45.068,45.000,0.00,0.09,-272.70,-272.75,-8,161,-1,20.3,2.5,-28.3,20.3,4.0,-23.2,5.73,2.29,-18.0,25.3
2015-01-22 00:56:00,0.0,1.94879,0.00031,406.331,0.034,0.0731,0.0019,140.002,45.000,28742.35737,1.95018,406.689,33.060,45.068,45.000,0.00,0.09,-272.69,-272.74,-8,161,-1,20.2,2.5,-28.4,20.3,4.0,-23.2,5.73,2.43,-18.0,25.2
2015-01-22 00:57:00,0.0,1.94870,0.00033,406.416,0.073,0.0730,0.0019,139.999,45.000,28741.85607,1.95013,406.774,33.036,45.068,45.000,0.00,0.09,-272.69,-272.75,-8,161,-1,20.2,2.5,-28.3,20.3,4.0,-23.3,5.73,2.49,-17.9,25.3
2015-01-22 00:58:00,0.0,1.94827,0.00028,406.313,0.050,0.0736,0.0015,139.999,45.000,28740.90347,1.94966,406.671,33.051,45.068,45.000,0.00,0.09,-272.70,-272.74,-8,161,-1,20.2,2.5,-28.4,20.3,4.0,-23.2,5.73,2.40,-17.9,25.2
2015-01-22 00:59:00,0.0,1.94892,0.00066,406.299,0.081,0.0735,0.0021,140.000,45.000,28742.20454,1.95031,406.658,33.054,45.068,45.000,0.00,0.09,-272.69,-272.75,-8,161,-1,20.2,2.5,-28.4,20.3,4.0,-23.2,5.73,2.26,-17.9,25.2
2015-01-22 01:00:00,0.0,1.94981,0.00035,406.373,0.032,0.0718,0.0015,140.000,45.000,28740.64085,1.95119,406.724,33.063,45.068,45.000,0.00,0.09,-272.69,-272.74,-8,161,-1,20.2,2.5,-28.5,20.3,4.0,-23.3,5.73,2.23,-17.9,25.2
2015-01-22 01:01:00,0.0,1.94931,0.00033,406.365,0.031,0.0724,0.0015,140.000,45.000,28741.96874,1.95071,406.720,33.063,45.068,45.000,0.00,0.09,-272.70,-272.75,-9,161,-1,20.2,2.5,-28.5,20.3,4.0,-23.2,5.73,2.35,-18.0,25.1
2015-01-22 01:02:00,0.0,1.94914,0.00037,406.408,0.037,0.0731,0.0017,140.000,45.000,28742.64947,1.95055,406.764,33.063,45.068,45.000,0.00,0.09,-272.69,-272.75,-9,161,-1,20.2,2.5,-28.5,20.3,4.0,-23.3,5.73,2.47,-17.9,25.2
2015-01-22 01:03:00,0.0,1.94921,0.00077,406.302,0.105,0.0721,0.0020,140.000,45.000,28745.30470,1.95062,406.659,33.063,45.068,45.000,0.00,0.09,-272.68,-272.74,-9,162,-1,20.2,2.5,-28.5,20.3,4.0,-23.3,5.73,2.47,-17.9,25.2
2015-01-22 01:04:00,0.0,1.94806,0.00042,406.087,0.035,0.0723,0.0015,139.999,45.000,28744.39517,1.94946,406.441,33.063,45.067,45.000,0.00,0.09,-272.69,-272.75,-8,162,-1,20.1,2.5,-28.4,20.3,4.0,-23.3,5.73,2.34,-17.9,25.2
2015-01-22 01:05:00,0.0,1.94769,0.00029,405.913,0.041,0.0725,0.0021,139.998,45.000,28741.69405,1.94908,406.269,33.067,45.068,45.000,0.00,0.09,-272.69,-272.76,-8,162,-1,20.1,2.5,-28.4,20.2,4.0,-23.3,5.73,2.23,-18.0,25.2
2015-01-22 01:06:00,0.0,1.94764,0.00035,405.890,0.031,0.0729,0.0011,140.000,45.000,28742.58368,1.94902,406.246,33.085,45.067,45.000,0.00,0.09,-272.68,-272.75,-8,161,-1,20.1,2.5,-28.4,20.2,4.0,-23.3,5.73,2.26,-17.9,25.2
2015-01-22 01:07:00,0.0,1.94810,0.00039,405.915,0.029,0.0730,0.0017,139.997,45.000,28741.72201,1.94949,406.272,33.105,45.067,45.000,0.00,0.09,-272.69,-272.75,-8,161,-1,20.1,2.5,-28.4,20.2,4.0,-23.3,5.73,2.40,-17.9,25.2
2015-01-22 01:08:00,0.0,1.94834,0.00031,405.957,0.026,0.0726,0.0015,140.000,45.000,28746.08959,1.94973,406.312,33.114,45.067,45.000,0.00,0.09,-272.69,-272.75,-8,162,-1,20.1,2.5,-28.4,20.2,4.0,-23.3,5.73,2.49,-18.0,25.1
2015-01-22 01:09:00,0.0,1.94839,0.00031,405.995,0.047,0.0724,0.0015,140.000,45.000,28746.12601,1.94978,406.348,33.115,45.067,45.000,0.00,0.09,-272.69,-272.75,-8,162,-1,20.1,2.5,-28.4,20.2,4.0,-23.3,5.73,2.43,-18.0,25.2
2015-01-22 01:10:00,0.0,1.94787,0.00059,405.976,0.052,0.0734,0.0023,139.997,45.000,28749.86302,1.94930,406.337,33.126,45.067,45.000,0.00,0.09,-272.68,-272.75,-8,162,-1,20.1,2.5,-28.3,20.2,4.0,-23.3,5.73,2.28,-17.9,25.2
2015-01-22 01:11:00,0.0,1.94757,0.00039,405.894,0.042,0.0738,0.0015,139.997,45.000,28746.01490,1.94898,406.255,33.126,45.067,45.000,0.00,0.09,-272.69,-272.74,-8,162,-1,20.1,2.5,-28.3,20.2,4.0,-23.3,5.73,2.23,-17.9,25.2
2015-01-22 01:12:00,0.0,1.94769,0.00046,405.911,0.056,0.0729,0.0023,139.996,45.000,28744.54117,1.94910,406.266,33.125,45.067,45.000,0.00,0.09,-272.69,-272.75,-8,162,-1,20.1,2.5,-28.2,20.2,4.0,-23.3,5.73,2.31,-18.0,25.2
2015-01-22 01:13:00,0.0,1.94784,0.00046,406.008,0.030,0.0738,0.0015,140.000,45.000,28747.10716,1.94923,406.367,33.120,45.067,45.000,0.00,0.09,-272.69,-272.74,-8,162,-1,20.0,2.5,-28.2,20.2,4.0,-23.3,5.73,2.45,-17.9,25.2
2015-01-22 01:14:00,0.0,1.94800,0.00037,406.068,0.036,0.0744,0.0014,140.001,45.000,28747.46897,1.94942,406.430,33.106,45.068,45.000,0.00,0.09,-272.70,-272.75,-8,162,-1,20.0,2.5,-28.3,20.2,4.0,-23.3,5.73,2.49,-18.0,25.2
2015-01-22 01:15:00,0.0,1.94782,0.00041,406.055,0.034,0.0742,0.0015,140.002,45.000,28748.39579,1.94928,406.418,33.109,45.068,45.000,0.00,0.09,-272.69,-272.75,-8,162,-1,20.0,2.5,-28.3,20.1,4.0,-23.3,5.73,2.36,-17.9,25.2
2015-01-22 01:16:00,0.0,1.94804,0.00035,406.136,0.035,0.0746,0.0016,140.000,45.000,28748.17544,1.94943,406.500,33.118,45.068,45.000,0.00,0.09,-272.68,-272.75,-8,162,-1,20.0,2.5,-28.3,20.1,4.0,-23.4,5.73,2.23,-18.0,25.2
2015-01-22 01:17:00,0.0,1.94810,0.00038,406.173,0.037,0.0745,0.0017,139.999,45.000,28748.79352,1.94955,406.536,33.126,45.068,45.000,0.00,0.09,-272.69,-272.74,-8,162,-1,20.0,2.5,-28.3,20.1,4.0,-23.3,5.73,2.26,-18.0,25.1
2015-01-22 01:18:00,0.0,1.94820,0.00036,406.216,0.028,0.0743,0.0019,139.998,45.000,28749.46982,1.94962,406.579,33.125,45.068,45.000,0.00,0.09,-272.70,-272.75,-8,162,-1,20.0,2.6,-28.2,20.1,4.0,-23.4,5.73,2.39,-17.9,25.1
2015-01-22 01:19:00,0.0,1.94843,0.00034,406.173,0.059,0.0737,0.0014,139.998,45.000,28750.70674,1.94981,406.537,33.125,45.068,45.000,0.00,0.09,-272.69,-272.75,-8,163,-1,20.0,2.5,-28.3,20.1,4.0,-23.3,5.73,2.49,-18.0,25.1
2015-01-22 01:20:00,0.0,1.94842,0.00040,406.080,0.039,0.0740,0.0015,140.000,45.000,28751.24373,1.94986,406.440,33.121,45.068,45.000,0.00,0.09,-272.68,-272.75,-8,162,-1,20.0,2.5,-28.3,20.1,4.0,-23.3,5.73,2.43,-17.9,25.2
2015-01-22 01:21:00,0.0,1.94852,0.00045,406.096,0.039,0.0734,0.0010,140.000,45.000,28751.31216,1.94991,406.454,33.121,45.068,45.000,0.00,0.09,-272.69,-272.75,-8,163,-1,20.0,2.5,-28.4,20.1,4.0,-23.4,5.73,2.30,-18.0,25.2
2015-01-22 01:22:00,0.0,1.94841,0.00043,406.089,0.023,0.0738,0.0019,139.999,45.000,28750.88133,1.94989,406.451,33.124,45.068,45.000,0.00,0.09,-272.69,-272.75,-8,162,-1,20.0,2.5,-28.4,20.1,4.0,-23.3,5.73,2.23,-18.0,25.1
2015-01-22 01:23:00,0.0,1.94841,0.00046,406.054,0.032,0.0728,0.0014,140.000,45.000,28747.49814,1.94975,406.411,33.136,45.067,45.000,0.00,0.09,-272.69,-272.74,-8,162,-1,19.9,2.5,-28.4,20.1,4.0,-23.3,5.73,2.30,-18.0,25.1
2015-01-22 01:24:00,0.0,1.94850,0.00052,406.063,0.026,0.0730,0.0020,140.000,45.000,28748.73150,1.94993,406.419,33.167,45.067,44.999,0.00,0.09,-272.70,-272.74,-8,162,-1,19.9,2.5,-28.4,20.1,4.0,-23.3,5.73,2.44,-17.9,25.2
2015-01-22 01:25:00,0.0,1.94774,0.00040,405.960,0.026,0.0728,0.0018,140.000,45.000,28752.50796,1.94915,406.318,33.178,45.067,44.999,0.00,0.09,-272.70,-272.75,-8,163,-1,19.9,2.5,-28.4,20.1,4.0,-23.4,5.73,2.48,-18.0,25.2
2015-01-22 01:26:00,0.0,1.94804,0.00029,405.999,0.024,0.0727,0.0014,140.000,45.000,28750.26257,1.94941,406.353,33.143,45.067,44.999,0.00,0.09,-272.69,-272.74,-8,162,-1,19.9,2.5,-28.4,20.1,4.0,-23.4,5.73,2.39,-18.0,25.1
2015-01-22 01:27:00,0.0,1.94831,0.00041,406.002,0.037,0.0729,0.0016,139.998,45.000,28745.70028,1.94971,406.357,33.125,45.067,45.000,0.00,0.09,-272.69,-272.75,-8,162,-1,19.9,2.5,-28.4,20.1,4.0,-23.4,5.73,2.26,-18.0,25.1
2015-01-22 01:28:00,0.0,1.94818,0.00038,406.029,0.039,0.0727,0.0014,139.999,45.000,28745.67616,1.94954,406.385,33.103,45.067,45.000,0.00,0.09,-272.69,-272.75,-8,162,-1,19.9,2.5,-28.4,20.1,4.0,-23.4,5.73,2.24,-18.0,25.1
2015-01-22 01:29:00,0.0,1.94852,0.00036,406.090,0.040,0.0721,0.0016,140.000,45.000,28747.24203,1.94991,406.440,33.072,45.068,45.000,0.00,0.09,-272.69,-272.75,-8,162,-1,19.9,2.5,-28.4,20.1,4.0,-23.4,5.73,2.34,-18.0,25.1
2015-01-22 01:30:00,0.0,1.94917,0.00040,406.128,0.026,0.0724,0.0017,139.998,45.000,28744.10996,1.95053,406.482,33.074,45.068,45.000,0.00,0.09,-272.69,-272.75,-8,162,-1,19.9,2.5,-28.5,20.1,4.0,-23.4,5.73,2.45,-18.0,25.1
2015-01-22 01:31:00,0.0,1.94960,0.00041,406.138,0.031,0.0726,0.0017,139.998,45.000,28743.18111,1.95100,406.492,33.084,45.068,45.001,0.00,0.09,-272.69,-272.75,-8,162,-1,19.9,2.5,-28.5,20.1,4.0,-23.4,5.73,2.47,-18.0,25.1
2015-01-22 01:32:00,0.0,1.94955,0.00046,406.126,0.033,0.0716,0.0016,139.999,45.000,28744.95411,1.95091,406.478,33.076,45.068,45.000,0.00,0.09,-272.69,-272.76,-8,162,-1,19.9,2.5,-28.6,20.1,4.0,-23.4,5.73,2.37,-18.0,25.1
2015-01-22 01:33:00,0.0,1.95026,0.00047,406.162,0.028,0.0709,0.0014,140.003,45.000,28742.99492,1.95162,406.506,33.064,45.068,45.000,0.00,0.09,-272.68,-272.75,-8,161,-1,19.9,2.5,-28.7,20.1,4.0,-23.4,5.73,2.26,-18.0,25.1
2015-01-22 01:34:00,0.0,1.95075,0.00041,406.133,0.039,0.0701,0.0008,139.997,45.000,28744.71599,1.95208,406.476,33.063,45.068,45.000,0.00,0.09,-272.69,-272.76,-8,162,-1,19.9,2.5,-28.7,20.1,4.0,-23.4,5.73,2.25,-18.0,25.1
2015-01-22 01:35:00,0.0,1.95165,0.00041,406.125,0.035,0.0715,0.0015,139.997,45.000,28740.81994,1.95298,406.475,33.065,45.068,45.000,0.00,0.09,-272.70,-272.75,-8,162,-1,19.9,2.5,-28.7,20.1,4.0,-23.4,5.73,2.35,-18.0,25.1
2015-01-22 01:36:00,0.0,1.95099,0.00046,406.091,0.035,0.0702,0.0019,140.000,45.000,28741.49140,1.95240,406.436,33.064,45.068,45.000,0.00,0.09,-272.70,-272.74,-8,162,-1,19.8,2.5,-28.7,20.0,4.0,-23.4,5.73,2.47,-18.0,25.1
2015-01-22 01:37:00,0.0,1.95105,0.00056,406.047,0.030,0.0709,0.0015,139.996,45.000,28743.81930,1.95235,406.394,33.062,45.068,45.000,0.00,0.09,-272.69,-272.75,-8,162,-1,19.8,2.5,-28.8,20.0,4.0,-23.4,5.73,2.47,-18.0,25.1
2015-01-22 01:38:00,0.0,1.95081,0.00052,406.043,0.039,0.0706,0.0018,140.002,45.000,28749.47711,1.95221,406.388,33.062,45.068,45.000,0.00,0.09,-272.70,-272.75,-8,162,-1,19.8,2.5,-28.7,20.0,4.0,-23.4,5.73,2.33,-18.0,25.1
2015-01-22 01:39:00,0.0,1.94980,0.00030,406.018,0.026,0.0712,0.0014,139.999,45.000,28744.56342,1.95119,406.365,33.050,45.068,45.000,0.00,0.09,-272.69,-272.75,-7,162,-1,19.8,2.5,-28.7,20.0,4.0,-23.4,5.73,2.23,-18.0,25.1
2015-01-22 01:40:00,0.0,1.94888,0.00073,406.006,0.029,0.0717,0.0019,140.001,45.000,28742.55686,1.95027,406.357,33.043,45.068,45.000,0.00,0.09,-272.69,-272.75,-7,161,-1,19.8,2.5,-28.7,20.0,4.0,-23.4,5.73,2.28,-18.0,25.1
2015-01-22 01:41:00,0.0,1.94897,0.00047,406.014,0.032,0.0712,0.0013,139.996,45.000,28739.07702,1.95037,406.361,33.061,45.068,45.000,0.00,0.09,-272.70,-272.75,-8,161,-1,19.8,2.5,-28.6,20.0,4.0,-23.5,5.73,2.41,-18.0,25.1
2015-01-22 01:42:00,0.0,1.94930,0.00072,406.015,0.033,0.0708,0.0019,140.000,45.000,28740.90956,1.95061,406.360,33.063,45.068,45.000,0.00,0.09,-272.70,-272.75,-8,161,-1,19.8,2.5,-28.6,20.0,4.0,-23.5,5.73,2.49,-18.0,25.1
2015-01-22 01:43:00,0.0,1.94988,0.00032,406.108,0.060,0.0710,0.0019,139.997,45.000,28739.20979,1.95125,406.452,33.060,45.068,45.000,0.00,0.09,-272.69,-272.74,-8,161,-1,19.8,2.5,-28.8,20.0,4.0,-23.4,5.73,2.42,-18.0,25.1
2015-01-22 01:44:00,0.0,1.95001,0.00049,406.160,0.051,0.0714,0.0019,139.998,45.000,28739.14046,1.95138,406.509,33.062,45.068,45.000,0.00,0.09,-272.69,-272.75,-8,161,-1,19.8,2.5,-28.8,20.0,4.0,-23.5,5.73,2.28,-18.0,25.1
2015-01-22 01:45:00,0.0,1.94960,0.00033,406.310,0.024,0.0707,0.0018,139.999,45.000,28740.08243,1.95096,406.654,33.063,45.068,45.000,0.00,0.09,-272.69,-272.76,-8,161,-1,19.8,2.5,-28.8,20.0,4.0,-23.4,5.73,2.23,-18.0,25.1
2015-01-22 01:46:00,0.0,1.95004,0.00045,406.270,0.035,0.0713,0.0019,139.998,45.000,28739.04472,1.95139,406.619,33.063,45.068,45.000,0.00,0.09,-272.69,-272.75,-8,161,-1,19.7,2.5,-28.8,20.0,4.0,-23.4,5.73,2.32,-18.0,25.1